Simultaneous Nadir Overpasses (SNOs) Predictions

Prediction of SNOs between METOP-A and TERRA Satellite Orbit:

Table of predicted SNOs for the next 14.0 days since TLE Epoch: 10/26/2012
Index Date (METOP-A) Time (METOP-A) METOP-A Lat,Lon Date (TERRA) Time (TERRA) TERRA Lat,Lon Distance(km) Time Diff (sec)
1 10/28/2012 00:03:36 -81.33, 46.86 10/28/2012 00:04:45 -81.33, 46.71 2.55 69
2 10/28/2012 00:54:16 81.33,-145.70 10/28/2012 00:54:11 81.34,-145.54 2.74 5
3 10/30/2012 19:37:55 -81.33, 112.97 10/30/2012 19:39:00 -81.33, 113.13 2.75 65
4 10/30/2012 20:28:34 81.33, -79.24 10/30/2012 20:28:26 81.34, -79.14 1.65 8
5 11/02/2012 15:12:12 -81.32, 179.37 11/02/2012 15:13:15 -81.32, 179.34 0.96 63
6 11/02/2012 16:02:51 81.33, -12.87 11/02/2012 16:02:41 81.32, -12.96 1.74 10
7 11/05/2012 10:46:27
